Retour au catalogue

STARLINK-36578

ActifCommunicationsSSO
NORAD 67571·PAYLOAD·🇺🇸 United States

Lancé Jan 25, 2026 depuis Vandenberg Space Force Base

Loading…

Prochains Passages (prochaines 24 heures)

TLE

FraisSource: CelesTrak SupGP

Époque: Sep 14, 2026, 22:23 UTC

1 67571C 26016L   26257.93312500  .00002554  00000+0  79298-4 0  2577
2 67571  97.2848 316.6148 0001096  87.7466 263.4586 15.33436112    13

Suivez STARLINK-36578 en temps réel avec AllMySat

Download on the App Store